Flag for Indonesia Weather past 2 weeks in Makassar, South Sulawesi, Indonesia

Now
84 °F

Passing clouds.


Feels Like: 94 °F
Forecast: 77 / 90 °F
Wind: 7 mph from Northeast

Location: Ujung Pandang / Hasanuddin

Current Time: Aug 28, 2015 at 9:02:31 PM

Latest Report: Aug 28, 2015 at 8:00 PM


Visibility: 5 mi

Pressure: 29.89 "Hg

Humidity: 79%

Dew point: 77 °F

Location of MakassarLocation

Historic Weather in Makassar — Graph

°F

Makassar temperature yesterday

Maximum temperature yesterday: 91 °F (at 11:00 AM)
Minimum temperature yesterday: 70 °F (at 5:30 AM)
Average temperature yesterday: 82 °F

Past Weeks' High & Low Weather Summary

 TemperatureHumidityPressure
High95 °F (Aug 14, 12:00 PM)100% (Aug 17, 6:00 AM)29.98 "Hg (Aug 17, 6:00 AM)
Low68 °F (Aug 17, 6:00 AM)25% (Aug 15, 1:30 PM)29.77 "Hg (Aug 25, 3:00 PM)
Average82 °F62%29.88 "Hg
* Reported Aug 13 8:00 PM — Aug 28 8:00 PM, Makassar, Weather by CustomWeather, © 2015

Note: Actual official high and low records may vary slightly from our data, if they occured in-between our weather recording intervals... More about our weather records

Advertising

Makassar weather history for previous 24 hours

 ConditionsComfort  
Time TempWeatherWind HumidityBarometerVisibility
8:00 PM
Fri, Aug 28
84 °FPassing clouds.7 mph79%29.89 "Hg5 mi
7:30 PM84 °FPassing clouds.7 mph79%29.86 "Hg5 mi
7:00 PM84 °FPassing clouds.8 mph79%29.86 "Hg5 mi
6:30 PM86 °FPassing clouds.9 mph70%29.86 "Hg5 mi
6:00 PM88 °FPassing clouds.7 mph59%29.83 "Hg5 mi
5:30 PM88 °FPassing clouds.8 mph62%29.83 "HgN/A
5:00 PM90 °FPassing clouds.7 mph52%29.83 "HgN/A
4:30 PM90 °FPassing clouds.8 mph49%29.83 "HgN/A
4:00 PM90 °FPassing clouds.10 mph52%29.80 "HgN/A
3:30 PM90 °FPassing clouds.10 mph52%29.83 "HgN/A
3:00 PM91 °FPassing clouds.12 mph49%29.83 "HgN/A
2:30 PM91 °FPassing clouds.13 mph52%29.83 "HgN/A
2:00 PM91 °FPassing clouds.14 mph56%29.83 "HgN/A
1:30 PM91 °FPassing clouds.12 mph49%29.83 "HgN/A
1:00 PM91 °FPassing clouds.13 mph49%29.86 "HgN/A
12:30 PM91 °FPassing clouds.12 mph49%29.86 "HgN/A
12:00 PM91 °FPassing clouds.10 mph52%29.89 "HgN/A
11:30 AM90 °FPassing clouds.12 mph55%29.89 "HgN/A
11:00 AM91 °FPassing clouds.8 mph49%29.89 "HgN/A
10:30 AM90 °FPassing clouds.3 mph49%29.92 "HgN/A
10:00 AM90 °FPassing clouds.3 mph49%29.92 "HgN/A
9:30 AM88 °FPassing clouds.3 mph52%29.92 "HgN/A
9:00 AM88 °FPassing clouds.3 mph52%29.92 "HgN/A
8:30 AM86 °FPassing clouds.5 mph59%29.92 "HgN/A
8:00 AM82 °FPassing clouds.5 mph66%29.92 "HgN/A
7:30 AM81 °FPassing clouds.3 mph70%29.92 "HgN/A
7:00 AM77 °FPassing clouds.2 mph79%29.92 "HgN/A
6:00 AM75 °FPassing clouds.1 mph89%29.89 "Hg6 mi
5:00 AM75 °FPassing clouds.2 mph89%29.89 "Hg5 mi
4:30 AM75 °FPassing clouds.3 mph89%29.89 "Hg5 mi
4:00 AM75 °FPassing clouds.3 mph89%29.89 "Hg5 mi
3:30 AM75 °FPassing clouds.2 mph94%29.89 "Hg5 mi
3:00 AM77 °FPassing clouds.1 mph89%29.89 "Hg5 mi
2:30 AM77 °FPassing clouds.1 mph89%29.89 "Hg5 mi
2:00 AM77 °FPassing clouds.3 mph89%29.89 "Hg5 mi
1:30 AM79 °FPassing clouds.2 mph84%29.89 "Hg5 mi
1:00 AM79 °FPassing clouds.3 mph84%29.89 "Hg5 mi
12:30 AM79 °FPassing clouds.2 mph84%29.92 "Hg5 mi
12:00 AM81 °FPassing clouds.3 mph84%29.92 "Hg5 mi
11:30 PM
Thu, Aug 27
81 °FPassing clouds.5 mph84%29.92 "Hg5 mi
11:00 PM81 °FPassing clouds.3 mph84%29.92 "Hg5 mi
10:30 PM81 °FPassing clouds.1 mph84%29.92 "Hg5 mi
10:00 PM81 °FPassing clouds.3 mph84%29.92 "Hg5 mi
9:30 PM81 °FPassing clouds.2 mph84%29.92 "Hg5 mi
9:00 PM82 °FPassing clouds.3 mph79%29.89 "Hg5 mi
Weather by CustomWeather, © 2015

See weather overviewHow to use our weather pages